Weather History for Pine River, MN

Change the Weather History Date:

Tuesday, January 1, 2013

  Actual Average Record
Temperature  
Mean Temperature -2 °F -  
Max Temperature 17 °F 19 °F 41 °F (1998)
Min Temperature -20 °F 3 °F -23 °F (2014)
Degree Days  
Heating Degree Days 66    
Moisture  
Dew Point -3 °F    
Average Humidity 84    
Maximum Humidity 93    
Minimum Humidity 70    
Precipitation  
Precipitation 0.00 in - - ()
Sea Level Pressure  
Sea Level Pressure 30.09 in    
Wind  
Wind Speed 1 mph (SSW)    
Max Wind Speed 7 mph    
Max Gust Speed -    
Visibility 8 miles    
Events Snow    
Averages and records for this station are not official NWS values.
T = Trace of Precipitation, MM = Missing Value Source: NWS Daily Summary

Daily Weather History Graph

Daily Weather History Graph

Search for Another Location

Airport:

Trip Planner

Search our weather history database for the weather conditions in past years. The results will help you decide how hot, cold, wet, or windy it might be!

Date:

Astronomy

Jan. 01, 2013 Rise Set
Actual Time 8:02 AM CST 4:40 PM CST
Civil Twilight 7:27 AM CST 5:15 PM CST
Nautical Twilight 6:48 AM CST 5:53 PM CST
Astronomical Twilight 6:12 AM CST 6:30 PM CST
Moon 9:30 PM CST (1/1) 9:58 AM CST (1/1)
Length of Visible Light 9h 48m
Length of Day
8h 38m
Waning Gibbous, 83% of the Moon is Illuminated
Jan 1
Waning Gibbous
Jan 4
Last Quarter
Jan 11
New
Jan 18
First Quarter
Jan 26
Full

Hourly Weather History & Observations

Time (CST) Temp. Windchill Dew Point Humidity Pressure Visibility Wind Dir Wind Speed Gust Speed Precip Events Conditions
12:13 AM -16.6 °F - -20.2 °F 84% 30.22 in 10.0 mi Calm Calm - N/A   Clear
12:33 AM -16.6 °F - -20.2 °F 84% 30.22 in 10.0 mi Calm Calm - N/A   Clear
12:53 AM -16.6 °F - -20.2 °F 84% 30.22 in 10.0 mi Calm Calm - N/A   Clear
1:13 AM -16.6 °F - -20.2 °F 84% 30.22 in 10.0 mi Calm Calm - N/A   Clear
1:32 AM -18.4 °F - -22.0 °F 84% 30.21 in 10.0 mi Calm Calm - N/A   Clear
1:53 AM -18.4 °F - -23.8 °F 76% 30.21 in 10.0 mi Calm Calm - N/A   Clear
2:12 AM -18.4 °F - -23.8 °F 76% 30.21 in 10.0 mi Calm Calm - N/A   Clear
2:32 AM -18.4 °F - -23.8 °F 76% 30.21 in 10.0 mi Calm Calm - N/A   Clear
2:53 AM -18.4 °F - -23.8 °F 76% 30.21 in 10.0 mi Calm Calm - N/A   Clear
3:12 AM -18.4 °F - -23.8 °F 76% 30.21 in 10.0 mi Calm Calm - N/A   Clear
3:33 AM -18.4 °F - -23.8 °F 76% 30.20 in 7.0 mi Calm Calm - N/A   Clear
3:53 AM -18.4 °F - -23.8 °F 76% 30.20 in 10.0 mi Calm Calm - N/A   Clear
4:13 AM -20.2 °F - -25.6 °F 76% 30.21 in 7.0 mi Calm Calm - N/A   Clear
4:33 AM -18.4 °F - -25.6 °F 70% 30.21 in 10.0 mi Calm Calm - N/A   Clear
4:53 AM -20.2 °F - -25.6 °F 76% 30.20 in 10.0 mi Calm Calm - N/A   Clear
5:13 AM -20.2 °F - -25.6 °F 76% 30.20 in 10.0 mi Calm Calm - N/A   Clear
5:32 AM -20.2 °F - -25.6 °F 76% 30.19 in 10.0 mi Calm Calm - N/A   Clear
5:53 AM -20.2 °F - -25.6 °F 76% 30.19 in 10.0 mi Calm Calm - N/A   Clear
6:13 AM -20.2 °F - -25.6 °F 76% 30.19 in 10.0 mi Calm Calm - N/A   Clear
6:32 AM -20.2 °F - -25.6 °F 76% 30.19 in 10.0 mi Calm Calm - N/A   Clear
6:53 AM -20.2 °F - -25.6 °F 76% 30.18 in 10.0 mi Calm Calm - N/A   Clear
7:12 AM -20.2 °F - -25.6 °F 76% 30.17 in 10.0 mi Calm Calm - N/A   Clear
7:33 AM -20.2 °F - -25.6 °F 76% 30.16 in 10.0 mi Calm Calm - N/A   Clear
7:53 AM -20.2 °F - -25.6 °F 76% 30.16 in 7.0 mi Calm Calm - N/A   Scattered Clouds
8:13 AM -20.2 °F - -25.6 °F 76% 30.15 in 7.0 mi Calm Calm - N/A   Mostly Cloudy
8:32 AM -18.4 °F - -23.8 °F 76% 30.15 in 5.0 mi Calm Calm - N/A Snow Light Snow
8:53 AM -14.8 °F - -20.2 °F 77% 30.14 in 4.0 mi Calm Calm - N/A Snow Light Snow
9:12 AM -11.2 °F - -16.6 °F 77% 30.14 in 2.5 mi Calm Calm - N/A Snow Light Snow
9:33 AM -9.4 °F - -13.0 °F 84% 30.13 in 1.0 mi Calm Calm - N/A Snow Light Snow
9:53 AM -5.8 °F - -9.4 °F 84% 30.13 in 3.0 mi Calm Calm - N/A Snow Light Snow
10:13 AM -4.0 °F - -7.6 °F 85% 30.12 in 4.0 mi Calm Calm - N/A Snow Light Snow
10:33 AM -2.2 °F - -5.8 °F 85% 30.12 in 5.0 mi Calm Calm - N/A Snow Light Snow
10:51 AM 1.4 °F - -2.2 °F 85% 30.11 in 10.0 mi Calm Calm - N/A Snow Light Snow
11:12 AM 5.0 °F - 1.4 °F 85% 30.10 in 10.0 mi Calm Calm - N/A   Overcast
11:32 AM 6.8 °F -0.1 °F 3.2 °F 85% 30.10 in 10.0 mi South 3.5 mph - N/A Snow Light Snow
11:53 AM 8.6 °F 0.1 °F 6.8 °F 92% 30.09 in 7.0 mi SSW 4.6 mph - N/A Snow Light Snow
12:13 PM 10.4 °F 2.2 °F 6.8 °F 85% 30.08 in 7.0 mi SSW 4.6 mph - N/A   Overcast
12:33 PM 10.4 °F - 8.6 °F 92% 30.07 in 7.0 mi Calm Calm - N/A Snow Light Snow
12:53 PM 10.4 °F 4.0 °F 8.6 °F 92% 30.07 in 7.0 mi SW 3.5 mph - N/A Snow Light Snow
1:13 PM 12.2 °F 4.3 °F 10.4 °F 92% 30.06 in 5.0 mi SW 4.6 mph - N/A Snow Light Snow
1:33 PM 12.2 °F 4.3 °F 10.4 °F 92% 30.04 in 7.0 mi SW 4.6 mph - N/A Snow Light Snow
1:52 PM 12.2 °F 1.7 °F 10.4 °F 92% 30.04 in 7.0 mi SW 6.9 mph - N/A Snow Light Snow
2:12 PM 14.0 °F 8.2 °F 10.4 °F 86% 30.04 in 7.0 mi SSW 3.5 mph - N/A Snow Light Snow
2:33 PM 14.0 °F 6.5 °F 10.4 °F 86% 30.04 in 7.0 mi SW 4.6 mph - N/A Snow Light Snow
2:51 PM 14.0 °F 6.5 °F 10.4 °F 86% 30.04 in 7.0 mi SW 4.6 mph - N/A   Overcast
3:12 PM 15.8 °F 8.6 °F 10.4 °F 79% 30.04 in 7.0 mi SSW 4.6 mph - N/A   Overcast
3:33 PM 15.8 °F 7.2 °F 12.2 °F 86% 30.03 in 7.0 mi SSW 5.8 mph - N/A   Overcast
3:53 PM 15.8 °F 8.6 °F 12.2 °F 86% 30.03 in 7.0 mi SW 4.6 mph - N/A   Overcast
4:11 PM 15.8 °F 7.2 °F 12.2 °F 86% 30.03 in 7.0 mi SSW 5.8 mph - N/A   Overcast
4:33 PM 15.8 °F 8.6 °F 12.2 °F 86% 30.03 in 5.0 mi SSW 4.6 mph - N/A   Overcast
4:53 PM 15.8 °F 7.2 °F 12.2 °F 86% 30.03 in 5.0 mi SSW 5.8 mph - N/A   Overcast
5:12 PM 15.8 °F 7.2 °F 14.0 °F 93% 30.02 in 5.0 mi SSW 5.8 mph - N/A   Overcast
5:33 PM 15.8 °F 8.6 °F 14.0 °F 93% 30.02 in 5.0 mi SSW 4.6 mph - N/A   Overcast
5:52 PM 15.8 °F 10.2 °F 14.0 °F 93% 30.01 in 5.0 mi South 3.5 mph - N/A   Overcast
6:13 PM 15.8 °F 8.6 °F 14.0 °F 93% 30.01 in 5.0 mi South 4.6 mph - N/A   Overcast
6:33 PM 15.8 °F 7.2 °F 14.0 °F 93% 30.00 in 5.0 mi South 5.8 mph - N/A   Overcast
6:53 PM 15.8 °F 10.2 °F 14.0 °F 93% 30.00 in 7.0 mi South 3.5 mph - N/A   Overcast
7:12 PM 15.8 °F 7.2 °F 12.2 °F 86% 29.99 in 7.0 mi SSW 5.8 mph - N/A   Overcast
7:32 PM 15.8 °F 10.2 °F 14.0 °F 93% 29.99 in 10.0 mi South 3.5 mph - N/A   Overcast
7:53 PM 15.8 °F 8.6 °F 14.0 °F 93% 29.98 in 10.0 mi South 4.6 mph - N/A   Overcast
8:12 PM 15.8 °F 10.2 °F 14.0 °F 93% 29.97 in 10.0 mi South 3.5 mph - N/A   Overcast
8:33 PM 17.6 °F 10.7 °F 14.0 °F 86% 29.97 in 10.0 mi South 4.6 mph - N/A   Overcast
8:53 PM 17.6 °F 10.7 °F 14.0 °F 86% 29.96 in 7.0 mi South 4.6 mph - N/A   Overcast
9:13 PM 17.6 °F 9.3 °F 14.0 °F 86% 29.95 in 10.0 mi South 5.8 mph - N/A   Overcast
9:32 PM 17.6 °F 10.7 °F 14.0 °F 86% 29.95 in 5.0 mi South 4.6 mph - N/A   Overcast
9:52 PM 17.6 °F 9.3 °F 14.0 °F 86% 29.94 in 10.0 mi South 5.8 mph - N/A   Overcast
10:12 PM 17.6 °F 9.3 °F 15.8 °F 93% 29.94 in 10.0 mi South 5.8 mph - N/A   Overcast
10:32 PM 17.6 °F 10.7 °F 15.8 °F 93% 29.94 in 10.0 mi South 4.6 mph - N/A   Overcast
10:52 PM 17.6 °F 12.3 °F 15.8 °F 93% 29.94 in 5.0 mi South 3.5 mph - N/A   Overcast
11:13 PM 17.6 °F 12.3 °F 15.8 °F 93% 29.94 in 7.0 mi South 3.5 mph - N/A   Overcast
11:33 PM 17.6 °F 12.3 °F 15.8 °F 93% 29.93 in 10.0 mi South 3.5 mph - N/A   Overcast
11:53 PM 17.6 °F 12.3 °F 15.8 °F 93% 29.93 in 10.0 mi South 3.5 mph - N/A   Overcast